[[{"header":{"parameterUnit":"m.s-1","parameterCategory":1,"la1":30.2991,"la2":30.254,"lo1":-89.0895,"lo2":-89.0444,"dy":0.0017,"dx":0.0017,"nx":28,"ny":28,"refTime":"2024-07-07T03:00:00:Z","depth":0,"parameterNumber":2,"parameterNumberName":"U-component_of_WINDS"},"data":[0,0,0,0,0,0,0,0,0,0,0,0,0,0,0,0,0,0,0,0,0,0,0,0,0,0,0,0,0,0,0,0,0,0,0,0,0,0,0,0,0,0,0,0,0,0,0,0,0,0,0,0,0,0,0,0,0,0,1.038,1.038,0,1.0428,1.0428,1.0429,1.0421,1.042,1.0419,1.0419,1.0467,1.0469,1.0471,0,0,0,0,0,0,0,0,0,0,0,0,0,1.028,1.0282,1.038,1.038,1.0381,1.0428,1.0428,1.0429,1.0421,1.042,1.0419,1.0418,1.0466,1.0469,1.0471,0,0,0,0,0,0,0,0,0,0,0,0,0,1.0325,1.0282,1.038,1.0383,1.0384,1.0427,1.0428,1.0429,1.0421,1.042,1.0419,1.0418,1.0466,1.0469,1.0472,1.0515,0,0,1.0481,1.0482,0,0,0,0,0,0,0,0,1.0322,1.0329,1.0382,1.0383,1.0384,1.0417,1.0411,1.0458,1.0422,1.0407,1.0419,1.0417,1.0451,1.0456,1.0467,1.0517,1.052,1.0481,1.0483,1.0484,1.0485,0,0,0,0,0,0,0,1.0319,1.0327,1.0399,1.0383,1.0384,1.0381,1.0386,1.042,1.0436,1.0408,1.0408,1.0414,1.0452,1.0464,1.0468,1.052,1.0481,1.0484,1.0486,1.0487,1.0606,1.0607,0,0,0,0,0,0,1.0315,1.0324,1.0397,1.04,1.0349,1.0384,1.039,1.0408,1.0435,1.0438,1.0415,1.0413,1.046,1.0465,1.047,1.0521,1.0484,1.0487,1.0489,1.0605,1.0606,1.0608,0,0,0,0,0,0,1.0313,1.0322,1.0395,1.0362,1.0371,1.0387,1.0407,1.0409,1.0422,1.044,1.0443,1.0425,1.0459,1.0466,1.0503,1.0523,1.0489,1.0491,1.0603,1.0605,1.0607,1.0624,0,0,0,0,0,0,1.0311,1.0321,1.0339,1.0362,1.0373,1.0429,1.0409,1.0411,1.0427,1.0426,1.045,1.0453,1.0458,1.0499,1.0507,1.0526,1.0494,1.0602,1.0604,1.0607,1.0622,1.0627,1.0631,0,0,0,0,0,1.0307,1.0342,1.034,1.0349,1.0395,1.043,1.0436,1.0441,1.0429,1.0446,1.0457,1.0452,1.052,1.0503,1.0511,1.0532,1.06,1.0603,1.0606,1.062,1.0626,1.063,0,0,0,0,0,0,1.032,1.0345,1.0343,1.0387,1.0406,1.0428,1.045,1.0448,1.0471,1.0468,1.0474,1.048,1.0518,1.0529,1.051,1.0575,1.0558,1.0563,1.0566,1.0571,1.0575,1.0571,1.0496,0,0,0,0,0,1.0328,1.0355,1.0375,1.0412,1.0422,1.0434,1.045,1.0452,1.0473,1.0481,1.0495,1.0514,1.054,1.0556,1.0581,1.0624,1.0628,1.0642,1.0647,1.065,1.0654,1.0675,1.0681,1.0618,1.0618,1.0618,0,0,1.0345,1.0362,1.0379,1.0415,1.043,1.0457,1.0441,1.0471,1.049,1.0485,1.0521,1.0532,1.0554,1.0594,1.0613,1.0605,1.0672,1.0654,1.0656,1.0658,1.0679,1.0685,1.069,1.062,1.0619,1.0619,0,0,1.0389,1.0405,1.0437,1.0452,1.0475,1.0483,1.0491,1.0513,1.052,1.0556,1.0553,1.0576,1.062,1.0635,1.0648,1.0696,1.0692,1.0704,1.0726,1.0747,1.0752,1.0756,1.0771,1.0777,1.0708,1.0708,1.0708,0,1.0407,1.0447,1.0453,1.0482,1.0497,1.0494,1.0525,1.054,1.057,1.058,1.0571,1.0625,1.064,1.0682,1.0693,1.0705,1.0713,1.0701,1.075,1.0755,1.0759,1.0774,1.0779,1.0709,1.0709,1.0709,1.0709,0,1.0467,1.0494,1.0517,1.0545,1.0563,1.0593,1.0603,1.062,1.0621,1.0629,1.0665,1.0683,1.071,1.072,1.0722,1.0763,1.0757,1.0749,1.0732,1.0766,1.078,1.0786,1.0711,1.0711,1.071,1.071,0,0,1.052,1.0551,1.0558,1.057,1.0595,1.0616,1.0646,1.0672,1.0686,1.0706,1.073,1.0766,1.0759,1.0774,1.0777,1.0796,1.083,1.0786,1.0786,1.0792,1.0873,1.0878,1.0884,1.0828,1.0829,1.083,1.0871,0,1.0564,1.0616,1.0621,1.0667,1.0691,1.0688,1.0713,1.0731,1.0739,1.0761,1.077,1.0795,1.0785,1.0793,1.0812,1.0822,1.0846,1.0819,1.0848,1.0849,1.0841,1.0891,1.0897,1.0935,1.0876,1.0877,1.0878,0,1.0623,1.0645,1.0693,1.0712,1.0723,1.0745,1.0768,1.079,1.0809,1.0814,1.083,1.083,1.0859,1.0842,1.088,1.0862,1.0874,1.0881,1.0882,1.0884,1.0864,1.0893,1.0947,1.0952,1.0887,1.0886,1.0885,0,1.0655,1.0696,1.0729,1.074,1.0764,1.078,1.079,1.0808,1.0823,1.0844,1.0853,1.0877,1.0889,1.0907,1.0913,1.0901,1.0951,1.0935,1.0954,1.0954,1.0964,1.0963,1.1019,1.0975,1.0975,1.0975,1.0974,0,1.0703,1.0732,1.0743,1.0764,1.0795,1.0801,1.0832,1.0842,1.0858,1.0879,1.0878,1.0898,1.0906,1.0927,1.0932,1.0962,1.0968,1.0972,1.0973,1.0971,1.097,1.0978,1.0975,1.0976,1.0976,1.0975,1.0975,0,1.0743,1.0752,1.0788,1.0807,1.0813,1.0835,1.0852,1.0871,1.0879,1.0906,1.0912,1.0925,1.0949,1.0957,1.0987,1.099,1.1025,1.1024,1.1018,1.1018,1.1036,1.1033,1.1098,1.1106,1.1058,1.1058,1.1059,0,1.0772,1.0794,1.0816,1.083,1.0841,1.0864,1.0879,1.0885,1.0901,1.0923,1.0939,1.0963,1.0983,1.1022,1.1033,1.1055,1.1054,1.1075,1.1057,1.1054,1.1052,1.105,1.1051,1.1078,1.1078,1.1079,1.1079,0,1.0822,1.0825,1.0847,1.0869,1.0887,1.0905,1.0923,1.0934,1.0943,1.096,1.0985,1.1,1.103,1.1053,1.1076,1.1086,1.1083,1.1085,1.109,1.1088,1.1083,1.1084,1.1025,1.1083,1.1082,1.1082,1.1082,1.1082,1.0856,1.0875,1.0892,1.0916,1.093,1.0946,1.0964,1.0974,1.0995,1.1019,1.1022,1.1048,1.1065,1.1095,1.1106,1.1126,1.112,1.1128,1.113,1.1132,1.1132,1.1081,1.1131,1.113,1.113,1.113,1.113,0,1.0904,1.0915,1.0937,1.0961,1.0979,1.0976,1.0995,1.101,1.1033,1.1049,1.1068,1.1095,1.1118,1.113,1.1153,1.1166,1.1165,1.1171,1.117,1.1172,1.1137,1.1129,1.1171,1.1171,1.1171,1.1171,1.1171,1.1171,1.0931,1.0962,1.0967,1.1004,1.1014,1.104,1.1051,1.1065,1.1078,1.1109,1.1127,1.1135,1.115,1.1172,1.1192,1.1195,1.1203,1.1209,1.1211,1.1179,1.1174,1.117,1.1163,1.1211,1.1211,1.1244,1.1244,1.1245]},{"header":{"parameterUnit":"m.s-1","parameterCategory":1,"la1":30.2991,"la2":30.254,"lo1":-89.0895,"lo2":-89.0444,"dy":0.0017,"dx":0.0017,"nx":28,"ny":28,"refTime":"2024-07-07T03:00:00:Z","depth":0,"parameterNumber":3,"parameterNumberName":"V-component_of_WINDS"},"data":[0,0,0,0,0,0,0,0,0,0,0,0,0,0,0,0,0,0,0,0,0,0,0,0,0,0,0,0,0,0,0,0,0,0,0,0,0,0,0,0,0,0,0,0,0,0,0,0,0,0,0,0,0,0,0,0,0,0,4.942,4.942,0,4.9431,4.9431,4.9431,4.9339,4.9336,4.9334,4.9331,4.9341,4.9344,4.9347,0,0,0,0,0,0,0,0,0,0,0,0,0,4.9315,4.9318,4.942,4.942,4.942,4.9431,4.9431,4.9431,4.934,4.9336,4.9333,4.933,4.9341,4.9344,4.9347,0,0,0,0,0,0,0,0,0,0,0,0,0,4.9347,4.9318,4.942,4.9376,4.9372,4.9431,4.9431,4.9431,4.934,4.9336,4.9332,4.9329,4.934,4.9343,4.9347,4.9449,0,0,4.936,4.9361,0,0,0,0,0,0,0,0,4.9345,4.9351,4.9382,4.9379,4.9374,4.938,4.9398,4.9437,4.9341,4.9352,4.9331,4.9327,4.9357,4.936,4.937,4.945,4.945,4.936,4.9362,4.9364,4.9365,0,0,0,0,0,0,0,4.9343,4.935,4.9424,4.9382,4.9378,4.9354,4.9354,4.9405,4.9376,4.9351,4.9344,4.9347,4.9354,4.9366,4.937,4.945,4.936,4.9363,4.9366,4.9367,4.961,4.9614,0,0,0,0,0,0,4.9347,4.9349,4.9424,4.9424,4.935,4.9359,4.9359,4.9382,4.9375,4.9371,4.935,4.9343,4.9361,4.9365,4.937,4.9486,4.9364,4.9368,4.937,4.9606,4.9611,4.9616,0,0,0,0,0,0,4.9346,4.9355,4.9423,4.9385,4.9392,4.9365,4.9391,4.9384,4.9396,4.9375,4.9369,4.9368,4.9359,4.9364,4.9429,4.9485,4.937,4.9373,4.9602,4.9608,4.9614,4.9721,0,0,0,0,0,0,4.9343,4.9355,4.9394,4.9386,4.9394,4.9484,4.9395,4.9387,4.9403,4.9393,4.939,4.9386,4.9356,4.9424,4.9433,4.9488,4.9376,4.9596,4.9604,4.9612,4.9712,4.973,4.9745,0,0,0,0,0,4.934,4.9424,4.9397,4.9406,4.9443,4.9488,4.9492,4.9457,4.9408,4.9447,4.9433,4.9386,4.9478,4.9431,4.9441,4.9498,4.9593,4.9602,4.9611,4.9705,4.9726,4.9744,0,0,0,0,0,0,4.9439,4.9422,4.9392,4.9477,4.9484,4.9472,4.9519,4.9481,4.9502,4.9492,4.9447,4.9447,4.9519,4.9515,4.9464,4.9595,4.9527,4.9538,4.9594,4.9615,4.9631,4.9629,4.938,0,0,0,0,0,4.9471,4.951,4.9493,4.9569,4.9574,4.9547,4.9565,4.9537,4.9543,4.9545,4.9536,4.9543,4.9573,4.9594,4.9621,4.9712,4.9708,4.9756,4.9772,4.9785,4.9795,4.984,4.986,4.9646,4.9646,4.9646,0,0,4.9537,4.9533,4.956,4.9589,4.9591,4.9631,4.955,4.9596,4.9624,4.9552,4.9613,4.9607,4.9611,4.9689,4.9723,4.9688,4.9854,4.9797,4.9808,4.981,4.9852,4.9872,4.989,4.9652,4.9651,4.965,0,0,4.9677,4.9679,4.9741,4.9745,4.975,4.9731,4.9746,4.9739,4.9732,4.9793,4.9739,4.9772,4.9825,4.983,4.9839,4.998,4.9936,4.999,5.0075,5.0119,5.0136,5.0151,5.0198,5.0216,5.0,5.0001,5.0001,0,4.9758,4.9816,4.9778,4.9827,4.984,4.9777,4.9839,4.9844,4.9858,4.9868,4.9829,4.9894,4.9893,4.9969,5.0004,5.0014,5.0028,4.9989,5.0137,5.0151,5.0164,5.0209,5.0228,5.0007,5.0006,5.0005,5.0005,0,4.9914,4.9956,5.0005,5.0019,5.0038,5.0094,5.0062,5.0086,5.0057,5.0041,5.0102,5.0099,5.0122,5.0139,5.0111,5.0211,5.0189,5.0145,5.0075,5.0192,5.0233,5.025,5.0016,5.0013,5.0012,5.001,0,0,5.0117,5.0108,5.0127,5.0131,5.0132,5.0162,5.0214,5.0237,5.0257,5.0269,5.0309,5.0356,5.0314,5.0324,5.0296,5.0336,5.0444,5.0286,5.0285,5.0313,5.0552,5.0584,5.0604,5.0416,5.0419,5.0422,5.055,0,5.0251,5.0339,5.0305,5.0395,5.0431,5.0371,5.0415,5.042,5.0407,5.0434,5.042,5.0452,5.0396,5.0401,5.0438,5.0423,5.0491,5.0414,5.0452,5.0454,5.045,5.0626,5.0661,5.0782,5.0567,5.0569,5.0571,0,5.042,5.0437,5.053,5.0522,5.0536,5.0577,5.0594,5.0622,5.0625,5.0612,5.0624,5.0587,5.0635,5.0568,5.0633,5.0581,5.0595,5.059,5.0593,5.0594,5.0518,5.0629,5.082,5.0838,5.0597,5.0595,5.0593,0,5.0555,5.0602,5.0663,5.0669,5.0662,5.0691,5.0689,5.0689,5.0704,5.0719,5.0728,5.075,5.0761,5.0778,5.0746,5.07,5.0815,5.0745,5.0805,5.0805,5.083,5.0828,5.1024,5.0843,5.0843,5.0842,5.0842,0,5.0707,5.0766,5.0723,5.076,5.0824,5.0784,5.0848,5.0839,5.0839,5.0873,5.0823,5.0855,5.0813,5.0842,5.0818,5.0874,5.088,5.087,5.0863,5.0873,5.0874,5.088,5.087,5.0847,5.0846,5.0845,5.0844,0,5.0868,5.0842,5.0904,5.0892,5.089,5.0937,5.0925,5.0959,5.0942,5.0985,5.0993,5.0966,5.0997,5.0968,5.0997,5.0981,5.1056,5.1037,5.1054,5.1048,5.1108,5.1102,5.1312,5.1337,5.1143,5.1145,5.1146,0,5.0966,5.1009,5.1001,5.102,5.1021,5.1053,5.1068,5.103,5.1048,5.1054,5.1086,5.1112,5.1131,5.1183,5.1165,5.1187,5.1167,5.1239,5.117,5.1179,5.1165,5.1162,5.1165,5.1253,5.1255,5.1257,5.1259,0,5.1141,5.1126,5.1149,5.1169,5.1188,5.1201,5.1211,5.1229,5.119,5.1212,5.1243,5.1257,5.1287,5.1313,5.1329,5.1326,5.1286,5.1281,5.1295,5.1305,5.1313,5.1307,5.109,5.1276,5.1274,5.1273,5.1272,5.1271,5.1272,5.1306,5.1305,5.1333,5.1336,5.1346,5.1375,5.1362,5.1387,5.1407,5.1384,5.142,5.142,5.1438,5.144,5.1467,5.1437,5.1459,5.1463,5.1469,5.1477,5.131,5.1471,5.147,5.147,5.1469,5.1469,0,5.1442,5.1438,5.1464,5.1478,5.1499,5.146,5.1468,5.1488,5.1521,5.1525,5.1544,5.1578,5.1603,5.1587,5.1608,5.1633,5.1615,5.164,5.1636,5.1636,5.1504,5.1488,5.1654,5.1654,5.1654,5.1654,5.1654,5.1654,5.1533,5.1589,5.1573,5.163,5.1625,5.166,5.1668,5.1676,5.1678,5.1718,5.1738,5.1728,5.1724,5.1744,5.1764,5.1759,5.1768,5.1799,5.1787,5.1664,5.1645,5.1628,5.1613,5.1802,5.1802,5.1916,5.1918,5.1918]}]]